[[{"header":{"parameterUnit":"m.s-1","parameterCategory":1,"la1":30.2991,"la2":30.254,"lo1":-89.0895,"lo2":-89.0444,"dy":0.0017,"dx":0.0017,"nx":28,"ny":28,"refTime":"2025-12-06T09:00:00:Z","depth":0,"parameterNumber":2,"parameterNumberName":"U-component_of_WINDS"},"data":[0,0,0,0,0,0,0,0,0,0,0,0,0,0,0,0,0,0,0,0,0,0,0,0,0,0,0,0,0,0,0,0,0,0,0,0,0,0,0,0,0,0,0,0,0,0,0,0,0,0,0,0,0,0,0,0,0,0,-1.781,-1.7812,0,-1.8019,-1.8021,-1.8024,-1.8062,-1.806,-1.8058,-1.8057,-1.8274,-1.8282,-1.8289,0,0,0,0,0,0,0,0,0,0,0,0,0,-1.7445,-1.7451,-1.7809,-1.7812,-1.7815,-1.8019,-1.8022,-1.8024,-1.8062,-1.806,-1.8058,-1.8056,-1.8272,-1.8281,-1.829,0,0,0,0,0,0,0,0,0,0,0,0,0,-1.7623,-1.7453,-1.7809,-1.7858,-1.7864,-1.8018,-1.8022,-1.8025,-1.8063,-1.806,-1.8057,-1.8055,-1.8269,-1.828,-1.8291,-1.8411,0,0,-1.8325,-1.833,0,0,0,0,0,0,0,0,-1.7613,-1.7637,-1.7848,-1.7855,-1.7862,-1.8012,-1.7973,-1.8155,-1.8063,-1.7987,-1.8057,-1.8054,-1.8189,-1.8207,-1.8252,-1.8421,-1.8431,-1.8326,-1.8332,-1.8337,-1.834,0,0,0,0,0,0,0,-1.7601,-1.7628,-1.7892,-1.7851,-1.786,-1.787,-1.7893,-1.8007,-1.81,-1.7994,-1.7997,-1.8021,-1.8193,-1.8241,-1.8257,-1.8434,-1.8325,-1.8335,-1.8342,-1.8346,-1.8713,-1.8716,0,0,0,0,0,0,-1.7579,-1.7617,-1.7886,-1.7899,-1.7729,-1.7879,-1.7904,-1.7966,-1.8099,-1.8117,-1.8023,-1.8022,-1.8223,-1.8244,-1.8265,-1.8415,-1.8337,-1.8348,-1.8354,-1.871,-1.8714,-1.8717,0,0,0,0,0,0,-1.7571,-1.7603,-1.7877,-1.7759,-1.7795,-1.7888,-1.7958,-1.7972,-1.802,-1.8121,-1.8138,-1.8055,-1.8222,-1.8249,-1.8374,-1.8423,-1.8353,-1.8363,-1.8706,-1.8711,-1.8715,-1.8715,0,0,0,0,0,0,-1.7561,-1.76,-1.7646,-1.776,-1.7801,-1.7982,-1.7961,-1.7978,-1.8039,-1.804,-1.8156,-1.8173,-1.8222,-1.8358,-1.8385,-1.8437,-1.8371,-1.8702,-1.8708,-1.8714,-1.8711,-1.8719,-1.8726,0,0,0,0,0,-1.7547,-1.7638,-1.7648,-1.768,-1.786,-1.7985,-1.8009,-1.8063,-1.8043,-1.809,-1.8155,-1.8169,-1.8413,-1.837,-1.8402,-1.8457,-1.8699,-1.8707,-1.8713,-1.8708,-1.8717,-1.8726,0,0,0,0,0,0,-1.7529,-1.7654,-1.7666,-1.7797,-1.788,-1.7991,-1.8053,-1.8071,-1.8163,-1.816,-1.8224,-1.825,-1.8371,-1.8427,-1.8377,-1.8581,-1.8555,-1.8568,-1.854,-1.855,-1.8557,-1.8541,-1.8381,0,0,0,0,0,-1.754,-1.763,-1.7735,-1.7839,-1.788,-1.7959,-1.8016,-1.805,-1.8139,-1.8175,-1.8249,-1.8336,-1.8432,-1.8494,-1.8588,-1.8719,-1.8745,-1.8773,-1.878,-1.8786,-1.8797,-1.887,-1.8884,-1.874,-1.8739,-1.8739,0,0,-1.7564,-1.7643,-1.7696,-1.7838,-1.7906,-1.7998,-1.7989,-1.8087,-1.8157,-1.819,-1.8312,-1.837,-1.8471,-1.8599,-1.8659,-1.8649,-1.8842,-1.8795,-1.8798,-1.8807,-1.8879,-1.8892,-1.8904,-1.8744,-1.8743,-1.8743,0,0,-1.7654,-1.7723,-1.7818,-1.7886,-1.799,-1.8042,-1.8064,-1.8173,-1.8212,-1.8335,-1.8362,-1.8446,-1.861,-1.8681,-1.8739,-1.8855,-1.8872,-1.8884,-1.8923,-1.8993,-1.9005,-1.9015,-1.9057,-1.9071,-1.8895,-1.8895,-1.8895,0,-1.7671,-1.781,-1.7865,-1.7962,-1.8023,-1.8056,-1.8153,-1.8217,-1.8346,-1.8388,-1.8375,-1.8581,-1.8652,-1.8797,-1.8825,-1.8871,-1.8899,-1.8871,-1.8998,-1.9009,-1.902,-1.906,-1.9076,-1.8895,-1.8895,-1.8895,-1.8895,0,-1.7826,-1.7922,-1.7987,-1.8109,-1.8178,-1.8274,-1.8343,-1.8407,-1.8434,-1.8488,-1.8613,-1.8699,-1.881,-1.8847,-1.8876,-1.8997,-1.8987,-1.8985,-1.8961,-1.9034,-1.9073,-1.9088,-1.8897,-1.8896,-1.8896,-1.8896,0,0,-1.7912,-1.8062,-1.8085,-1.814,-1.8256,-1.8332,-1.843,-1.8538,-1.8591,-1.8679,-1.8763,-1.8901,-1.8899,-1.8965,-1.9002,-1.9064,-1.915,-1.9055,-1.9058,-1.9069,-1.9289,-1.9289,-1.9306,-1.9162,-1.9165,-1.9167,-1.928,0,-1.8016,-1.8191,-1.8242,-1.8389,-1.8479,-1.8511,-1.8597,-1.8677,-1.873,-1.8814,-1.8872,-1.8969,-1.896,-1.8999,-1.9062,-1.9126,-1.9195,-1.9119,-1.9241,-1.9245,-1.9215,-1.9327,-1.9328,-1.943,-1.9296,-1.9298,-1.93,0,-1.8162,-1.825,-1.8406,-1.851,-1.855,-1.8625,-1.8728,-1.8808,-1.89,-1.8934,-1.9006,-1.9038,-1.9142,-1.9111,-1.9255,-1.9202,-1.9255,-1.9294,-1.93,-1.9313,-1.9277,-1.9343,-1.9464,-1.9479,-1.9325,-1.9323,-1.9321,0,-1.8208,-1.8367,-1.8481,-1.8527,-1.8651,-1.8704,-1.8758,-1.8848,-1.8909,-1.9,-1.904,-1.9142,-1.9197,-1.9276,-1.9334,-1.9306,-1.9473,-1.9447,-1.9505,-1.9503,-1.9539,-1.9536,-1.9669,-1.9573,-1.9572,-1.9572,-1.9572,0,-1.8319,-1.8413,-1.8503,-1.8573,-1.8679,-1.8737,-1.8841,-1.8897,-1.8976,-1.9058,-1.9093,-1.9169,-1.9241,-1.9328,-1.9374,-1.9486,-1.9511,-1.9542,-1.9553,-1.9539,-1.9535,-1.9575,-1.9569,-1.9576,-1.9575,-1.9574,-1.9574,0,-1.839,-1.8453,-1.8579,-1.8686,-1.8715,-1.8788,-1.888,-1.895,-1.9003,-1.9106,-1.9133,-1.9217,-1.932,-1.9386,-1.9517,-1.9549,-1.9672,-1.9681,-1.964,-1.9645,-1.9699,-1.9693,-1.9863,-1.9888,-1.9774,-1.9775,-1.9776,0,-1.8456,-1.8529,-1.8643,-1.87,-1.8754,-1.8845,-1.8907,-1.8968,-1.9032,-1.9142,-1.9198,-1.9303,-1.939,-1.9553,-1.9626,-1.9727,-1.9739,-1.9792,-1.9754,-1.9737,-1.9739,-1.9734,-1.9742,-1.9797,-1.9798,-1.9799,-1.98,0,-1.8568,-1.8595,-1.8684,-1.8783,-1.8856,-1.8938,-1.9019,-1.9064,-1.9138,-1.9208,-1.9313,-1.938,-1.9514,-1.9618,-1.9725,-1.9782,-1.9804,-1.9811,-1.9829,-1.9815,-1.9789,-1.9804,-1.9656,-1.9807,-1.9806,-1.9806,-1.9805,-1.9805,-1.8639,-1.8704,-1.8794,-1.8892,-1.8959,-1.9034,-1.9104,-1.9165,-1.9253,-1.9366,-1.9396,-1.9506,-1.9597,-1.9742,-1.9801,-1.9889,-1.9882,-1.9909,-1.9916,-1.9921,-1.9922,-1.9775,-1.9908,-1.9908,-1.9908,-1.9908,-1.9908,0,-1.8751,-1.8811,-1.8899,-1.9011,-1.9088,-1.91,-1.9191,-1.9254,-1.935,-1.9432,-1.9516,-1.9637,-1.9737,-1.9818,-1.9922,-1.9976,-1.9989,-2.0001,-1.9998,-2.0011,-1.9922,-1.9895,-1.999,-1.9989,-1.9989,-1.9989,-1.9989,-1.9989,-1.8819,-1.8931,-1.8969,-1.9115,-1.9174,-1.9281,-1.9332,-1.9401,-1.9467,-1.9599,-1.9683,-1.9734,-1.9816,-1.9926,-2.0019,-2.004,-2.0077,-2.0087,-2.011,-2.0026,-2.0017,-2.0008,-1.9984,-2.0095,-2.0095,-2.0192,-2.0193,-2.0193]},{"header":{"parameterUnit":"m.s-1","parameterCategory":1,"la1":30.2991,"la2":30.254,"lo1":-89.0895,"lo2":-89.0444,"dy":0.0017,"dx":0.0017,"nx":28,"ny":28,"refTime":"2025-12-06T09:00:00:Z","depth":0,"parameterNumber":3,"parameterNumberName":"V-component_of_WINDS"},"data":[0,0,0,0,0,0,0,0,0,0,0,0,0,0,0,0,0,0,0,0,0,0,0,0,0,0,0,0,0,0,0,0,0,0,0,0,0,0,0,0,0,0,0,0,0,0,0,0,0,0,0,0,0,0,0,0,0,0,-3.0037,-3.0037,0,-3.0028,-3.0028,-3.0028,-2.9987,-2.9986,-2.9985,-2.9984,-2.9972,-2.9973,-2.9974,0,0,0,0,0,0,0,0,0,0,0,0,0,-3.0014,-3.0015,-3.0037,-3.0037,-3.0037,-3.0028,-3.0028,-3.0028,-2.9987,-2.9986,-2.9984,-2.9983,-2.9972,-2.9973,-2.9974,0,0,0,0,0,0,0,0,0,0,0,0,0,-3.0017,-3.0015,-3.0037,-3.0015,-3.0013,-3.0028,-3.0028,-3.0028,-2.9987,-2.9985,-2.9984,-2.9983,-2.9972,-2.9973,-2.9974,-3.0008,0,0,-2.9976,-2.9977,0,0,0,0,0,0,0,0,-3.0017,-3.0018,-3.0019,-3.0017,-3.0015,-3.0007,-3.0016,-3.0021,-2.9987,-2.9997,-2.9984,-2.9982,-2.9985,-2.9985,-2.9986,-3.0008,-3.0007,-2.9977,-2.9977,-2.9977,-2.9978,0,0,0,0,0,0,0,-3.0017,-3.0018,-3.0034,-3.0019,-3.0016,-3.0005,-3.0003,-3.0017,-2.9999,-2.9996,-2.9993,-2.9993,-2.9984,-2.9985,-2.9986,-3.0007,-2.9977,-2.9977,-2.9978,-2.9978,-3.0053,-3.0054,0,0,0,0,0,0,-3.002,-3.0018,-3.0034,-3.0033,-3.0012,-3.0006,-3.0005,-3.0011,-2.9999,-2.9996,-2.9994,-2.9991,-2.9985,-2.9985,-2.9985,-3.0022,-2.9977,-2.9978,-2.9979,-3.0052,-3.0053,-3.0055,0,0,0,0,0,0,-3.002,-3.0022,-3.0034,-3.0025,-3.0025,-3.0008,-3.0015,-3.0012,-3.0013,-2.9997,-2.9994,-2.9999,-2.9983,-2.9984,-3.0002,-3.0022,-2.9979,-2.998,-3.005,-3.0052,-3.0054,-3.0099,0,0,0,0,0,0,-3.0019,-3.0022,-3.0036,-3.0025,-3.0026,-3.0053,-3.0017,-3.0012,-3.0015,-3.0011,-3.0001,-2.9998,-2.9982,-3.0001,-3.0003,-3.0022,-2.998,-3.0048,-3.0051,-3.0053,-3.0096,-3.0103,-3.0109,0,0,0,0,0,-3.0019,-3.005,-3.0037,-3.0039,-3.0044,-3.0054,-3.0055,-3.0036,-3.0017,-3.003,-3.0019,-2.9999,-3.0019,-3.0003,-3.0005,-3.0025,-3.0047,-3.005,-3.0053,-3.0093,-3.0102,-3.0109,0,0,0,0,0,0,-3.0063,-3.0048,-3.0034,-3.0063,-3.006,-3.0047,-3.0064,-3.0046,-3.0048,-3.0044,-3.002,-3.0019,-3.004,-3.0034,-3.0017,-3.0056,-3.0029,-3.0033,-3.0059,-3.0067,-3.0073,-3.0073,-2.9981,0,0,0,0,0,-3.0076,-3.0087,-3.0073,-3.01,-3.0099,-3.0082,-3.0086,-3.0071,-3.0068,-3.0066,-3.0057,-3.0053,-3.0058,-3.0062,-3.0066,-3.0095,-3.0091,-3.0109,-3.0115,-3.0121,-3.0124,-3.0135,-3.0143,-3.0066,-3.0066,-3.0066,0,0,-3.0104,-3.0097,-3.0105,-3.0108,-3.0105,-3.0115,-3.0081,-3.0094,-3.0101,-3.0068,-3.0084,-3.0077,-3.0071,-3.0094,-3.0104,-3.009,-3.0144,-3.0125,-3.0129,-3.0129,-3.014,-3.0147,-3.0153,-3.0068,-3.0067,-3.0067,0,0,-3.0159,-3.0156,-3.0176,-3.0173,-3.0167,-3.0155,-3.016,-3.0149,-3.0143,-3.0159,-3.0134,-3.0141,-3.0151,-3.0147,-3.0146,-3.0196,-3.0176,-3.0198,-3.0231,-3.0242,-3.0248,-3.0254,-3.0269,-3.0275,-3.0202,-3.0202,-3.0202,0,-3.0193,-3.0209,-3.0189,-3.0203,-3.0203,-3.0174,-3.0193,-3.019,-3.0187,-3.0187,-3.0172,-3.0182,-3.0176,-3.0196,-3.0208,-3.0209,-3.0212,-3.0199,-3.0249,-3.0254,-3.0259,-3.0274,-3.028,-3.0204,-3.0204,-3.0204,-3.0203,0,-3.025,-3.0261,-3.0278,-3.0275,-3.0278,-3.0294,-3.0275,-3.028,-3.0265,-3.0253,-3.0268,-3.026,-3.026,-3.0264,-3.025,-3.0281,-3.0273,-3.0254,-3.0226,-3.0269,-3.0282,-3.0288,-3.0208,-3.0207,-3.0206,-3.0206,0,0,-3.0335,-3.0318,-3.0325,-3.0321,-3.0312,-3.0319,-3.0333,-3.0334,-3.0337,-3.0335,-3.0345,-3.0353,-3.0334,-3.0333,-3.0318,-3.0328,-3.0365,-3.0307,-3.0307,-3.0317,-3.0396,-3.041,-3.0417,-3.0352,-3.0353,-3.0354,-3.0396,0,-3.0386,-3.041,-3.039,-3.0417,-3.0425,-3.0395,-3.0407,-3.0402,-3.0391,-3.0395,-3.0382,-3.0388,-3.0364,-3.0363,-3.0372,-3.0359,-3.038,-3.0356,-3.0359,-3.0359,-3.036,-3.0424,-3.0439,-3.0479,-3.0401,-3.0402,-3.0403,0,-3.0449,-3.0449,-3.0476,-3.0462,-3.0465,-3.0476,-3.0473,-3.0478,-3.047,-3.0461,-3.0459,-3.0439,-3.045,-3.0423,-3.0436,-3.0419,-3.0419,-3.0412,-3.0413,-3.0412,-3.0383,-3.0423,-3.0492,-3.0498,-3.0411,-3.0411,-3.041,0,-3.0505,-3.0512,-3.0528,-3.0526,-3.0511,-3.0519,-3.0513,-3.0503,-3.0504,-3.0501,-3.0501,-3.0499,-3.0498,-3.0497,-3.0476,-3.0459,-3.049,-3.0463,-3.0482,-3.0482,-3.0489,-3.0489,-3.0558,-3.0491,-3.0491,-3.0491,-3.0491,0,-3.0564,-3.0581,-3.0553,-3.0563,-3.058,-3.0557,-3.0575,-3.0565,-3.0556,-3.0563,-3.0537,-3.0543,-3.0516,-3.0519,-3.0503,-3.0514,-3.0514,-3.0506,-3.0501,-3.0508,-3.0508,-3.0507,-3.0503,-3.0493,-3.0492,-3.0492,-3.0492,0,-3.063,-3.0612,-3.0627,-3.0611,-3.0607,-3.062,-3.0605,-3.0613,-3.0599,-3.0607,-3.0608,-3.0586,-3.0588,-3.0567,-3.0565,-3.0554,-3.0571,-3.0563,-3.0574,-3.0571,-3.059,-3.0588,-3.0659,-3.0667,-3.0597,-3.0598,-3.0598,0,-3.0668,-3.068,-3.0664,-3.0667,-3.0661,-3.0666,-3.0666,-3.0643,-3.0643,-3.0633,-3.0641,-3.0641,-3.0639,-3.0642,-3.0625,-3.0622,-3.0612,-3.0637,-3.0611,-3.0616,-3.061,-3.0609,-3.0609,-3.0642,-3.0643,-3.0644,-3.0645,0,-3.0736,-3.0726,-3.0727,-3.0725,-3.0725,-3.0722,-3.0718,-3.0721,-3.0695,-3.0696,-3.0698,-3.0696,-3.0692,-3.0691,-3.0685,-3.0676,-3.0655,-3.0653,-3.0656,-3.0663,-3.0668,-3.0663,-3.0588,-3.0651,-3.065,-3.065,-3.065,-3.0649,-3.0788,-3.0796,-3.0786,-3.0787,-3.0781,-3.0776,-3.0782,-3.0768,-3.0769,-3.0765,-3.075,-3.0753,-3.0741,-3.073,-3.0724,-3.0724,-3.0712,-3.0718,-3.0719,-3.072,-3.0723,-3.0669,-3.0723,-3.0723,-3.0723,-3.0723,-3.0722,0,-3.0853,-3.0844,-3.0846,-3.0839,-3.084,-3.0821,-3.0813,-3.0815,-3.0818,-3.0809,-3.0807,-3.0806,-3.0804,-3.0787,-3.0782,-3.0785,-3.0775,-3.0785,-3.0784,-3.0781,-3.0736,-3.0732,-3.0793,-3.0793,-3.0793,-3.0793,-3.0793,-3.0793,-3.0887,-3.09,-3.0888,-3.0896,-3.0887,-3.0889,-3.0886,-3.0881,-3.0874,-3.0874,-3.0872,-3.0861,-3.0848,-3.0841,-3.0838,-3.0832,-3.0831,-3.0843,-3.0834,-3.0792,-3.0785,-3.0779,-3.0775,-3.0844,-3.0844,-3.088,-3.088,-3.088]}]]